Theta_e
298 298 299 299 301 301 302 303 305 306 305 305 305 304 303 303 302 292 286 291 289 283 283 284 283 283 283 283 281 284 285 284 284 279 277 274 274 275 272 277 281 281 280 278 275 274 272 271 276 279 274 273 271 270
297 297 298 298 300 300 302 303 305 306 305 305 305 303 303 303 301 294 286 290 291 286 284 288 286 285 284 283 285 283 283 283 285 282 279 277 275 275 272 275 282 280 281 276 278 276 270 271 270 272 273 271 269 269
297 297 297 298 299 299 300 302 305 306 305 304 304 303 303 303 301 294 287 287 287 282 281 284 284 288 289 286 288 281 280 286 285 287 283 279 277 276 277 274 275 275 278 275 272 269 268 268 268 269 270 269 269 269
296 296 297 297 298 298 299 302 305 304 305 304 304 303 302 302 300 294 285 285 284 278 276 278 289 286 289 286 287 286 286 286 285 283 277 277 277 281 278 279 279 275 277 272 268 268 268 268 268 268 268 269 268 268
295 295 296 297 297 297 297 300 303 303 303 303 302 301 301 300 297 291 287 288 286 282 274 272 283 285 287 285 284 285 285 283 277 276 271 276 280 277 276 275 270 269 273 275 274 270 270 268 269 269 268 267 267 267
295 295 295 296 296 296 296 298 300 302 303 302 301 301 301 300 298 290 284 286 289 284 277 271 276 282 284 286 282 278 282 280 274 271 269 275 279 277 270 270 266 267 266 267 267 270 270 268 268 269 267 267 267 267
294 294 294 295 296 296 296 296 298 301 301 301 300 299 299 297 289 285 283 286 290 286 277 274 270 280 281 284 283 281 274 269 274 267 267 271 272 272 265 269 264 265 266 268 268 267 265 266 265 267 266 266 266 265
293 294 294 294 295 295 295 294 296 298 300 300 299 298 297 296 292 286 287 287 288 279 278 265 269 271 275 275 278 282 273 274 272 270 266 265 269 270 273 263 264 265 265 266 266 267 268 266 266 265 265 265 264 263
293 293 293 293 294 294 294 293 295 295 296 297 296 292 287 283 284 284 289 286 282 281 276 262 267 267 272 277 280 275 273 270 271 268 268 269 268 270 264 263 263 264 264 264 264 264 264 264 263 263 263 263 263 262
293 292 292 292 292 293 294 293 292 293 295 293 282 277 275 273 287 286 273 274 272 271 270 263 263 266 271 271 271 270 274 271 269 265 269 264 265 257 258 259 264 264 264 263 260 259 261 259 260 261 261 261 261 260
292 292 292 291 292 293 293 292 291 289 286 273 266 267 274 282 273 264 262 262 259 263 261 260 265 267 273 272 272 275 268 270 268 264 269 266 263 260 259 259 261 261 262 260 259 260 259 260 259 258 258 258 257 256
292 292 292 290 291 292 292 290 289 274 268 273 272 270 267 265 263 264 257 256 256 260 256 259 263 266 269 272 273 274 270 267 267 263 264 261 267 259 259 259 259 259 258 257 257 256 255 256 253 253 254 253 252 251
292 292 291 289 290 291 291 289 286 286 279 269 266 263 265 261 263 262 259 258 258 253 254 255 261 265 270 272 270 271 269 267 261 258 260 264 258 259 259 259 258 258 257 255 253 253 253 251 249 249 250 243 244 242
292 292 291 288 290 290 289 286 283 276 268 264 263 264 261 258 255 255 255 253 256 256 255 259 257 265 267 269 266 269 265 265 263 260 262 263 259 259 258 258 256 255 256 255 254 253 252 252 249 249 247 246 244 243
292 291 287 286 289 289 286 281 276 264 261 261 261 265 255 249 246 244 241 246 250 252 256 257 257 261 258 265 262 264 262 261 261 264 266 260 260 258 256 256 256 254 254 254 251 251 251 249 247 245 244 242 241 238
291 285 276 289 289 287 283 270 262 258 254 256 253 253 246 249 248 245 242 247 248 253 251 252 252 256 256 256 259 261 262 262 266 264 260 259 259 258 257 257 256 256 254 253 251 250 248 246 246 247 237 237 240 240
288 269 285 288 287 281 278 261 260 253 255 254 253 240 247 247 253 250 249 251 251 251 253 248 255 258 253 253 256 257 263 265 259 254 252 253 260 259 258 257 255 254 252 250 247 243 243 238 236 239 244 244 239 240
272 276 287 286 280 269 259 257 256 256 253 247 255 250 243 245 245 244 243 246 249 247 249 254 253 252 254 255 256 259 256 250 248 249 252 251 254 257 257 256 253 252 251 248 245 245 241 241 245 247 243 240 238 238
281 283 284 283 275 261 261 259 257 256 250 245 245 244 243 244 243 244 242 243 242 244 250 247 251 254 258 256 258 253 246 250 252 250 248 244 246 253 253 252 251 248 249 246 243 247 247 246 246 244 243 239 243 241
286 281 281 277 273 263 261 258 256 256 253 252 247 247 246 246 243 239 240 241 245 245 248 251 256 258 260 259 257 256 253 253 254 250 249 247 243 246 249 250 251 247 243 237 237 240 239 241 240 241 240 242 241 246
275 272 275 266 262 259 256 253 254 250 248 251 245 247 247 243 244 245 245 243 249 249 253 256 255 255 242 241 241 244 251 258 255 258 257 253 244 246 243 241 243 243 244 243 246 243 243 246 247 245 243 244 245 245
268 276 265 267 261 257 256 254 254 251 252 247 248 246 247 249 248 246 243 247 252 257 255 255 251 246 244 248 246 244 247 248 243 248 251 252 247 246 244 246 245 246 247 248 248 250 249 249 244 242 242 245 243 242
272 269 263 262 262 258 255 252 254 251 255 252 247 252 250 247 245 246 248 254 257 251 242 243 241 237 242 238 237 239 241 251 250 248 248 247 248 249 250 248 249 251 249 249 246 247 248 247 246 245 244 243 242 242
270 262 263 260 258 256 251 252 253 251 249 251 252 253 250 246 246 246 253 257 260 240 240 242 242 246 246 245 245 247 247 246 246 242 240 249 249 248 250 253 251 253 252 244 248 248 246 245 246 244 245 243 241 243
267 262 260 258 251 255 253 253 252 252 253 249 252 253 249 244 250 247 252 260 258 250 241 237 241 245 252 250 246 246 241 252 254 255 249 249 244 244 243 240 242 249 245 246 244 244 243 240 244 245 245 244 245 246
261 258 258 256 253 257 257 254 253 257 252 252 251 244 243 248 251 255 255 258 258 255 250 248 250 248 251 251 252 249 252 246 248 255 250 250 253 256 256 254 252 254 248 251 252 250 250 247 245 245 246 246 247 246
260 259 253 249 252 253 253 251 252 255 255 257 255 251 252 253 253 258 258 254 255 253 251 252 254 255 257 254 253 251 249 252 254 255 251 254 256 256 257 257 257 258 252 252 253 253 253 251 250 250 250 247 247 248
259 254 258 253 252 252 256 254 256 258 258 253 255 254 256 256 260 261 258 250 247 249 252 253 254 255 255 258 257 252 251 251 249 249 250 251 250 252 252 251 251 257 252 252 253 253 253 253 252 251 250 251 250 246
253 250 253 253 252 253 255 257 256 253 250 254 256 256 259 260 259 258 253 249 247 248 251 254 256 255 256 254 254 253 252 253 255 255 256 259 256 258 253 254 254 253 252 252 255 254 252 253 252 252 251 251 250 246
253 250 252 251 253 255 252 247 247 243 244 246 245 249 252 255 256 251 247 247 249 252 255 256 256 256 257 256 257 253 252 255 258 260 259 260 260 256 255 255 255 254 252 252 252 252 258 256 255 253 249 248 247 246
248 248 251 251 253 250 245 244 241 241 242 243 245 247 250 250 252 254 253 252 252 252 254 255 255 254 254 255 254 254 256 255 254 254 255 253 252 253 254 256 255 254 253 253 252 252 251 250 250 249 250 250 250 250
248 250 253 254 254 247 242 244 242 242 243 244 246 244 248 248 251 255 253 252 253 254 255 253 252 252 250 250 251 252 255 254 253 254 254 255 255 253 254 255 254 253 252 252 252 251 251 251 250 250 250 250 251 251
249 250 248 249 251 252 249 247 248 248 247 245 247 246 245 248 254 257 254 253 253 253 253 252 251 250 250 249 249 250 252 251 253 259 261 260 259 258 256 255 254 253 253 252 252 251 250 250 250 250 250 250 251 251
Wind_Speed
32 32 34 34 34 34 35 35 34 20 6 10 17 25 28 29 25 6 1 4 3 1 0 1 2 2 3 4 4 4 5 1 2 4 4 1 2 3 4 3 8 12 8 5 3 3 8 3 1 11 6 8 10 8
31 31 32 34 34 35 33 35 33 18 11 13 13 28 25 26 20 7 4 1 2 3 1 2 2 2 2 1 1 1 3 3 3 2 1 3 3 2 4 2 3 4 5 7 5 3 4 5 7 5 5 10 5 8
30 30 31 33 33 34 33 33 28 21 15 19 25 25 26 23 12 7 3 2 3 3 2 0 2 2 3 4 2 3 3 4 3 3 4 3 4 3 4 3 3 2 3 4 5 4 4 6 10 10 10 13 11 10
29 29 29 31 32 33 32 30 22 25 19 21 24 24 19 13 8 8 4 2 3 2 4 3 3 2 7 7 3 4 2 3 4 2 3 3 3 1 2 1 2 1 6 7 5 5 7 4 8 10 12 13 13 11
28 28 28 29 30 30 29 28 26 22 23 22 20 17 15 14 17 11 4 4 2 4 3 3 0 4 6 7 6 5 4 2 2 3 3 2 2 4 1 2 2 4 7 6 6 14 4 7 11 11 12 11 10 12
27 27 27 27 28 27 27 24 21 17 14 18 18 15 12 7 4 4 4 3 7 3 5 2 4 3 4 5 8 9 6 4 3 3 2 2 2 1 3 4 1 2 4 3 5 9 14 18 13 12 14 12 10 10
26 26 26 24 26 26 25 22 17 13 13 14 14 14 12 13 7 4 2 4 13 3 4 4 5 4 3 3 2 3 4 3 4 1 4 1 1 4 1 4 5 7 5 11 16 15 12 13 11 12 12 10 10 9
24 25 25 23 24 24 23 22 15 9 12 13 15 18 20 20 10 3 5 10 2 4 4 3 4 5 7 3 2 2 2 2 5 2 3 3 2 2 4 3 8 8 8 8 4 5 5 15 15 14 12 11 11 8
24 24 24 22 23 24 22 20 16 4 3 7 8 5 3 5 2 1 4 9 6 5 2 3 4 5 5 2 1 4 2 3 2 2 2 0 1 6 2 9 14 12 7 13 10 12 12 12 13 13 12 11 10 9
22 23 23 21 21 24 22 21 17 10 2 3 6 5 3 3 9 3 8 4 6 5 4 3 1 2 2 2 2 3 1 2 0 1 1 1 5 3 2 3 7 8 9 13 16 10 9 8 10 12 9 8 5 6
21 21 21 18 19 22 22 21 19 11 7 4 2 2 4 7 4 5 3 5 4 4 3 2 1 2 2 1 1 1 2 1 2 3 3 2 6 5 7 7 6 8 8 2 3 8 7 8 10 9 7 7 7 4
22 22 21 15 18 21 20 19 17 5 3 5 4 2 4 6 5 5 2 4 4 3 4 1 1 2 3 2 2 1 1 1 2 1 1 4 4 4 11 8 8 7 8 6 4 9 9 8 6 6 6 6 6 6
21 21 20 14 18 20 18 15 11 5 4 4 6 6 4 4 5 5 3 4 2 1 2 3 1 1 2 2 1 1 2 0 1 3 6 7 1 6 9 9 8 6 7 7 5 6 8 7 2 4 6 4 6 4
22 22 20 12 20 20 16 12 7 4 6 5 4 3 3 4 4 5 5 4 2 0 2 1 2 3 2 1 2 2 1 0 1 2 8 3 8 11 10 9 9 9 9 9 9 8 7 8 6 3 2 3 5 4
22 23 13 10 20 20 14 7 7 5 5 3 4 4 3 1 1 1 1 1 3 1 1 1 2 1 2 2 2 3 2 4 6 6 4 2 11 11 11 10 9 10 9 7 5 6 6 6 4 2 4 3 3 2
23 12 4 23 21 19 12 5 5 4 6 5 5 5 2 3 3 2 1 3 2 2 2 2 2 4 3 3 3 6 5 6 5 4 1 5 10 11 11 10 9 9 9 7 6 5 5 6 6 5 0 3 6 4
14 2 15 23 20 10 13 5 5 8 6 4 2 0 2 1 3 3 4 4 2 3 2 4 3 8 1 3 3 5 6 4 3 3 2 1 10 12 11 9 8 9 8 7 6 5 4 3 4 3 3 4 3 5
2 6 17 17 13 5 5 5 6 5 4 1 2 3 1 1 2 2 2 1 3 3 3 5 5 3 6 5 5 6 5 2 3 2 2 2 4 7 9 11 8 8 8 7 4 5 5 6 6 6 5 4 3 4
7 8 12 12 6 5 4 5 4 4 3 2 1 0 1 1 1 1 2 1 0 0 4 3 3 5 6 6 6 4 3 4 4 3 2 2 2 6 6 6 6 6 7 7 6 7 6 8 4 3 3 4 3 2
10 7 10 7 5 4 4 3 2 5 3 3 2 1 2 2 0 1 1 2 2 3 2 4 8 6 6 5 5 4 4 5 5 3 2 2 1 4 6 8 7 6 5 3 2 3 2 2 3 4 4 3 3 5
5 4 6 5 4 6 5 1 4 2 2 2 1 2 1 2 2 1 1 1 2 5 5 7 6 4 1 2 1 2 4 9 6 4 6 5 4 4 4 2 5 4 4 4 5 4 4 6 4 4 4 5 6 5
2 5 3 3 5 4 5 1 3 1 3 1 1 1 1 1 2 2 1 1 6 7 7 5 4 3 2 4 4 5 4 6 4 4 8 12 6 4 5 6 6 6 7 7 6 7 7 6 4 4 5 5 3 3
3 3 3 3 4 4 2 1 3 3 2 3 2 2 2 1 2 2 4 5 6 3 1 2 1 0 2 2 2 2 4 7 5 4 4 3 3 4 6 7 6 7 6 6 4 4 5 4 5 5 4 3 3 3
4 4 2 1 3 3 2 3 2 3 3 2 1 3 3 2 1 2 6 5 4 2 1 3 3 2 2 2 3 4 5 3 4 2 2 5 4 5 5 7 8 7 5 3 5 6 4 5 4 4 4 4 4 4
2 4 3 3 2 4 2 1 2 2 3 1 1 3 2 2 0 2 6 6 2 3 2 2 1 2 3 2 2 4 3 7 8 9 5 4 4 3 2 2 3 5 4 4 4 5 4 3 5 6 6 6 7 8
3 3 4 4 2 4 5 4 5 6 3 3 5 1 1 2 1 8 6 4 3 2 3 4 4 2 4 6 3 2 4 4 2 4 3 9 8 7 8 8 6 5 9 9 5 8 8 6 6 8 7 9 9 7
5 5 1 1 2 4 2 1 1 2 4 6 4 4 2 3 8 7 3 2 2 2 2 2 3 4 3 2 3 2 2 8 5 2 1 8 8 5 5 8 9 6 8 12 10 9 9 9 9 9 9 5 8 9
3 4 5 3 1 0 3 3 5 7 4 2 5 5 7 9 6 4 4 2 2 2 2 2 4 3 3 3 1 3 2 3 3 1 1 1 1 2 3 2 1 6 6 7 8 7 7 8 8 8 8 9 6 6
2 1 3 2 0 2 5 6 5 2 1 3 5 5 6 4 2 1 1 1 1 1 3 2 2 2 1 1 1 2 3 7 9 8 8 6 2 5 7 6 5 5 4 5 8 8 8 7 7 7 7 5 4 3
3 1 3 2 4 6 3 3 2 2 1 1 1 4 4 4 3 1 1 1 1 2 2 2 2 2 3 2 2 3 4 5 6 5 4 5 4 2 6 7 7 6 6 5 5 2 2 4 2 3 3 3 3 3
1 2 2 2 4 1 2 1 2 1 1 2 1 3 4 6 6 2 1 1 1 2 2 2 2 2 3 3 3 2 3 5 9 9 6 2 2 3 2 3 4 5 6 6 6 6 4 3 4 4 5 7 7 7
1 2 3 2 2 1 1 0 0 1 2 2 2 1 4 3 5 3 2 2 1 2 1 2 2 3 1 2 3 3 5 3 2 5 8 6 5 2 1 3 4 4 5 5 5 5 6 7 5 6 7 9 9 9
1 1 1 1 3 2 1 1 2 3 1 2 3 3 3 3 6 3 0 1 2 3 3 3 3 3 4 4 5 5 5 4 7 7 6 7 8 7 5 3 4 4 5 4 4 5 7 7 6 7 7 9 10 11
Wind_Direction
352 352 353 352 351 349 347 349 347 357 84 138 150 163 161 160 164 102 80 45 120 137 333 279 24 275 132 235 153 150 154 228 125 233 113 173 117 189 95 188 171 168 172 167 111 140 261 4 171 181 105 95 111 92
352 354 355 355 354 354 354 355 359 35 59 139 145 149 148 150 154 113 85 77 62 87 48 96 215 237 184 254 232 49 21 114 173 79 64 113 70 74 128 182 335 167 156 172 179 203 39 55 68 48 98 126 127 116
352 355 355 358 357 359 0 1 7 31 81 106 123 131 138 147 128 101 110 54 68 117 4 13 345 317 240 237 184 136 267 151 168 169 161 138 133 129 151 231 93 24 49 110 129 150 123 92 83 71 89 105 103 101
351 356 357 359 2 2 2 3 31 53 77 108 114 125 137 131 110 92 83 315 80 97 101 298 295 344 305 327 229 218 236 41 111 122 102 121 121 170 199 154 223 101 137 127 80 117 110 101 109 119 112 110 111 107
352 355 360 359 3 5 6 6 22 59 71 82 90 96 101 103 96 82 82 30 35 124 188 255 93 333 6 346 8 45 66 55 78 58 70 102 126 108 25 40 264 195 154 186 188 160 113 137 147 137 125 120 124 125
352 354 358 1 2 7 7 9 12 38 61 70 69 73 78 108 111 56 31 12 12 2 91 24 261 344 346 36 38 30 26 39 64 87 121 75 64 350 134 209 165 58 47 315 160 137 114 125 132 136 129 126 122 124
350 353 355 359 3 4 7 6 11 30 69 78 64 60 54 60 68 68 155 302 320 334 76 352 341 10 345 301 29 56 38 42 58 87 41 79 74 75 104 204 142 107 95 98 108 106 106 153 153 138 128 124 123 111
349 351 353 354 359 3 4 5 0 24 63 83 87 84 80 83 99 46 15 6 6 92 61 106 271 15 3 347 61 8 69 60 22 110 8 30 4 26 254 131 126 124 123 126 103 48 112 121 128 131 130 137 138 138
348 349 351 352 353 357 2 5 1 336 71 100 118 40 58 38 69 56 83 33 35 51 127 75 137 243 346 343 45 28 78 58 309 69 39 97 153 220 219 172 162 165 180 153 125 110 125 127 139 138 141 149 153 158
345 347 348 351 351 352 355 359 358 355 322 101 46 50 352 290 312 18 7 22 25 7 25 92 323 289 352 335 354 90 299 124 180 -0 76 64 257 313 220 118 149 152 143 150 130 130 134 147 158 153 164 137 130 144
343 344 347 350 351 350 351 352 353 341 63 43 73 162 244 324 57 30 37 73 330 28 8 285 304 334 355 334 262 310 175 129 173 243 234 221 266 207 153 129 122 119 136 143 66 101 110 148 161 150 144 127 124 130
341 342 345 348 350 349 350 351 354 48 161 175 150 66 29 38 32 73 316 329 59 216 325 148 230 312 296 289 248 17 141 72 192 84 76 270 249 138 151 147 132 128 119 96 50 108 106 108 111 124 136 147 154 150
338 337 340 340 348 348 350 350 357 101 95 34 47 49 42 316 31 122 275 302 322 295 316 342 135 272 282 258 41 61 102 234 75 57 230 235 164 155 150 140 131 106 103 118 108 90 101 112 121 163 175 190 128 150
333 334 337 336 344 348 350 352 356 43 66 81 103 285 120 307 247 180 182 188 238 315 330 332 303 355 343 37 340 109 29 175 333 291 239 206 187 160 147 144 140 164 167 158 153 150 152 171 184 184 193 142 142 178
330 333 338 333 342 349 353 20 54 47 77 98 76 237 204 271 335 240 246 341 248 177 30 20 340 10 345 84 20 100 46 260 218 237 244 156 147 152 150 154 162 166 166 158 144 156 171 162 170 203 234 189 173 197
330 351 335 347 341 350 358 54 40 81 53 76 66 83 347 54 302 331 185 266 226 120 61 60 99 51 289 137 100 216 143 227 247 225 259 125 145 152 155 161 167 161 163 153 152 157 149 168 182 208 120 218 212 200
343 232 331 337 339 356 16 69 56 45 108 63 330 59 105 79 177 188 151 193 148 88 180 113 110 214 75 42 275 203 212 232 237 275 253 275 164 161 159 157 155 152 154 156 154 158 153 119 113 107 234 249 206 207
212 272 322 332 353 20 26 45 80 77 57 231 114 238 207 153 136 286 246 215 114 138 120 203 124 117 190 185 262 238 232 244 228 240 239 230 146 149 161 161 154 155 154 152 145 148 145 167 193 220 210 209 208 250
298 320 334 351 11 78 59 0 59 119 211 187 207 88 128 187 237 6 76 31 79 180 108 49 104 202 225 212 216 239 227 198 189 195 228 291 278 156 135 118 128 136 152 156 175 193 195 197 202 189 205 160 212 225
326 347 350 18 30 79 39 339 63 99 159 209 82 110 136 154 173 75 51 30 93 88 51 203 219 218 193 220 196 191 175 143 134 92 314 284 225 133 163 161 172 150 129 126 129 162 150 287 241 207 191 186 181 248
34 327 13 62 45 62 82 12 41 136 148 115 275 123 179 26 57 146 212 214 66 212 238 214 230 248 294 260 240 158 154 165 183 162 164 168 184 157 143 129 128 122 160 181 191 212 192 220 220 177 178 211 220 233
246 5 50 16 76 30 76 340 127 182 77 166 40 37 109 192 225 238 168 148 232 234 205 196 225 191 203 235 208 206 185 126 107 100 84 113 137 161 196 182 151 187 197 197 190 204 215 220 181 182 187 218 193 221
68 56 44 47 60 55 269 67 70 6 107 250 35 14 283 284 235 146 258 223 256 232 232 223 237 137 247 319 328 283 217 155 163 168 164 162 145 137 130 164 184 173 195 230 193 200 219 186 191 194 190 180 192 232
49 62 105 96 74 215 10 11 36 63 37 38 104 283 274 233 312 49 255 257 244 32 304 216 161 66 10 18 247 222 196 168 115 70 194 146 156 211 182 181 188 204 193 142 167 199 198 209 181 187 192 196 210 232
77 285 101 263 359 89 140 37 7 83 233 221 153 290 285 7 354 258 240 267 286 262 276 335 270 231 209 259 287 251 221 177 180 195 186 180 110 69 24 298 258 235 148 143 191 191 208 172 188 198 202 204 220 230
231 259 158 209 239 158 187 165 204 202 158 182 227 264 24 86 359 247 236 240 254 241 212 198 189 193 246 210 245 221 208 181 120 191 203 185 188 167 179 182 195 239 189 206 180 197 205 194 194 198 215 223 226 229
239 259 224 245 120 114 80 25 60 132 172 203 179 154 132 221 243 251 267 237 213 244 241 255 214 214 247 259 232 209 171 172 172 218 246 182 205 216 166 177 198 219 159 186 197 194 200 197 205 209 221 211 212 211
205 161 183 192 153 191 157 175 189 216 214 174 113 182 194 202 244 240 215 226 219 270 232 244 258 246 236 256 273 126 126 127 124 106 53 29 250 226 220 191 116 143 149 172 189 191 200 199 200 200 206 224 227 192
154 225 117 158 138 210 223 202 225 240 345 158 177 234 236 235 281 285 262 205 223 26 328 301 235 221 254 12 55 161 151 169 162 173 217 234 250 234 191 202 189 185 170 168 197 191 196 197 200 200 207 215 225 187
198 158 117 155 179 228 237 168 229 272 286 243 276 301 275 261 252 158 99 356 344 278 275 290 299 243 267 224 238 222 216 228 233 215 197 214 234 205 171 183 190 182 166 170 171 161 253 170 195 157 164 200 219 233
105 111 107 160 241 237 235 298 291 313 303 274 210 208 268 304 307 235 196 135 282 282 307 325 299 228 247 242 223 265 273 209 224 239 238 250 311 285 191 156 146 149 159 171 173 180 173 181 195 198 220 240 242 238
132 164 148 215 263 277 24 100 271 37 310 332 285 268 300 335 281 278 204 127 298 306 304 314 298 289 321 306 299 287 296 310 279 230 227 229 232 211 135 123 132 140 145 157 169 174 188 206 208 215 235 248 254 252
111 133 120 330 329 312 303 42 23 314 269 281 257 207 232 216 260 302 39 199 253 288 303 294 277 280 280 278 283 291 295 288 288 272 243 227 222 185 161 149 148 150 154 161 172 178 194 206 225 233 242 254 264 267